• In Italy
  • List of Countries
  • For 7 days
  • Water Temperature
  • Satellite Maps
  • Weather Map
  • Weather Widgets
  • user-avatar
    Login

    Hourly Weather Lankaran

    Today, 20 October, Saturday

    Time Temperature Precipitation Wind Pressure Humidity
    00:00 +9°C° 0 mm 2 mps 636 mmHg 71%
    01:00 +8°C° 0 mm 2 mps 636 mmHg 69%
    02:00 +8°C° 0 mm 2 mps 636 mmHg 67%
    03:00 +8°C° 0 mm 2 mps 635 mmHg 66%
    04:00 +8°C° 0 mm 2 mps 635 mmHg 64%
    05:00 +8°C° 0 mm 2 mps 635 mmHg 62%
    06:00 +7°C° 0 mm 2 mps 635 mmHg 61%
    07:00 +10°C° 0 mm 2 mps 636 mmHg 53%
    08:00 +13°C° 0 mm 2 mps 637 mmHg 46%
    09:00 +16°C° 0 mm 2 mps 637 mmHg 38%
    10:00 +16°C° 0 mm 2 mps 637 mmHg 38%
    11:00 +17°C° 0 mm 3 mps 637 mmHg 38%
    12:00 +18°C° 0 mm 3 mps 637 mmHg 38%
    13:00 +18°C° 0 mm 3 mps 637 mmHg 39%
    14:00 +18°C° 0 mm 3 mps 636 mmHg 41%
    15:00 +18°C° 0 mm 3 mps 636 mmHg 43%
    16:00 +16°C° 0 mm 3 mps 636 mmHg 48%
    17:00 +15°C° 0 mm 2 mps 635 mmHg 54%
    18:00 +13°C° 0 mm 2 mps 635 mmHg 60%
    19:00 +13°C° 0.1 mm 2 mps 635 mmHg 59%
    20:00 +13°C° 0.1 mm 2 mps 635 mmHg 57%
    21:00 +12°C° 0.1 mm 2 mps 635 mmHg 56%
    22:00 +12°C° 0.1 mm 2 mps 634 mmHg 55%
    23:00 +12°C° 0.1 mm 2 mps 634 mmHg 53%

    Tomorrow, 21 October, Sunday

    Time Temperature Precipitation Wind Pressure Humidity
    00:00 +12°C° 0.1 mm 2 mps 634 mmHg 52%
    01:00 +12°C° 0 mm 1 mps 634 mmHg 52%
    02:00 +11°C° 0 mm 1 mps 634 mmHg 51%
    03:00 +11°C° 0 mm 1 mps 634 mmHg 51%
    04:00 +11°C° 0 mm 1 mps 634 mmHg 51%
    05:00 +11°C° 0 mm 1 mps 634 mmHg 52%
    06:00 +10°C° 0 mm 1 mps 634 mmHg 53%
    07:00 +12°C° 0 mm 1 mps 635 mmHg 49%
    08:00 +14°C° 0 mm 2 mps 635 mmHg 45%
    09:00 +16°C° 0 mm 2 mps 636 mmHg 41%
    10:00 +17°C° 0 mm 2 mps 636 mmHg 40%
    11:00 +18°C° 0 mm 2 mps 636 mmHg 40%
    12:00 +19°C° 0 mm 3 mps 636 mmHg 39%
    13:00 +19°C° 0.1 mm 3 mps 636 mmHg 40%
    14:00 +19°C° 0.1 mm 3 mps 636 mmHg 42%
    15:00 +18°C° 0.1 mm 3 mps 636 mmHg 43%
    16:00 +17°C° 0.1 mm 3 mps 635 mmHg 47%
    17:00 +16°C° 0.1 mm 2 mps 635 mmHg 51%
    18:00 +15°C° 0.1 mm 2 mps 635 mmHg 55%
    19:00 +15°C° 0.1 mm 2 mps 635 mmHg 55%
    20:00 +14°C° 0.1 mm 2 mps 635 mmHg 55%
    21:00 +14°C° 0.1 mm 2 mps 635 mmHg 55%
    22:00 +14°C° 0 mm 2 mps 635 mmHg 56%
    23:00 +13°C° 0 mm 2 mps 635 mmHg 57%

    Day after tomorrow, 22 October, Monday

    Time Temperature Precipitation Wind Pressure Humidity
    00:00 +13°C° 0 mm 2 mps 635 mmHg 58%
    01:00 +12°C° 0 mm 1 mps 635 mmHg 59%
    02:00 +12°C° 0 mm 1 mps 634 mmHg 59%
    03:00 +12°C° 0 mm 1 mps 634 mmHg 59%
    04:00 +12°C° 0 mm 1 mps 634 mmHg 60%
    05:00 +12°C° 0 mm 1 mps 634 mmHg 60%
    06:00 +11°C° 0 mm 1 mps 634 mmHg 60%
    07:00 +13°C° 0 mm 1 mps 635 mmHg 56%
    08:00 +14°C° 0 mm 1 mps 636 mmHg 51%
    09:00 +16°C° 0 mm 1 mps 637 mmHg 47%
    10:00 +17°C° 0 mm 2 mps 636 mmHg 45%
    11:00 +18°C° 0 mm 2 mps 636 mmHg 43%
    12:00 +19°C° 0 mm 2 mps 636 mmHg 41%
    13:00 +19°C° 0.1 mm 2 mps 636 mmHg 42%
    14:00 +18°C° 0.1 mm 2 mps 636 mmHg 43%
    15:00 +18°C° 0.1 mm 2 mps 636 mmHg 44%
    16:00 +17°C° 0.1 mm 2 mps 636 mmHg 50%
    17:00 +16°C° 0.1 mm 1 mps 635 mmHg 56%
    18:00 +14°C° 0.1 mm 1 mps 635 mmHg 62%
    19:00 +14°C° 0.1 mm 1 mps 635 mmHg 62%
    20:00 +14°C° 0.1 mm 1 mps 636 mmHg 63%
    21:00 +12°C° 0.1 mm 0 mps 636 mmHg 63%
    22:00 +12°C° 0.2 mm 0 mps 636 mmHg 64%
    23:00 +13°C° 0.2 mm 1 mps 636 mmHg 65%

    23 October, Tuesday

    Time Temperature Precipitation Wind Pressure Humidity
    00:00 +12°C° 0.2 mm 1 mps 636 mmHg 66%
    01:00 +12°C° 0.1 mm 1 mps 635 mmHg 66%
    02:00 +11°C° 0.1 mm 1 mps 635 mmHg 67%
    03:00 +11°C° 0.1 mm 1 mps 635 mmHg 67%
    04:00 +11°C° 0 mm 1 mps 635 mmHg 67%
    05:00 +10°C° 0 mm 1 mps 635 mmHg 67%
    06:00 +10°C° 0 mm 1 mps 635 mmHg 68%
    07:00 +12°C° 0 mm 2 mps 636 mmHg 60%
    08:00 +14°C° 0 mm 2 mps 636 mmHg 53%
    09:00 +16°C° 0 mm 2 mps 637 mmHg 46%
    10:00 +17°C° 0 mm 2 mps 637 mmHg 44%
    11:00 +18°C° 0 mm 3 mps 637 mmHg 42%
    12:00 +19°C° 0 mm 3 mps 636 mmHg 40%
    13:00 +18°C° 0 mm 3 mps 636 mmHg 40%
    14:00 +18°C° 0 mm 3 mps 636 mmHg 40%
    15:00 +18°C° 0 mm 3 mps 635 mmHg 40%
    16:00 +17°C° 0 mm 2 mps 635 mmHg 44%
    17:00 +15°C° 0 mm 2 mps 635 mmHg 47%
    18:00 +14°C° 0 mm 1 mps 634 mmHg 51%
    19:00 +14°C° 0 mm 1 mps 634 mmHg 50%
    20:00 +14°C° 0 mm 1 mps 634 mmHg 49%
    21:00 +13°C° 0 mm 1 mps 634 mmHg 48%
    22:00 +13°C° 0 mm 2 mps 634 mmHg 48%
    23:00 +13°C° 0 mm 2 mps 634 mmHg 48%

    24 October, Wednesday

    Time Temperature Precipitation Wind Pressure Humidity
    00:00 +12°C° 0 mm 2 mps 634 mmHg 48%
    01:00 +12°C° 0 mm 2 mps 634 mmHg 48%
    02:00 +12°C° 0 mm 2 mps 634 mmHg 48%
    03:00 +10°C° 0 mm 2 mps 633 mmHg 48%
    04:00 +10°C° 0 mm 2 mps 633 mmHg 49%
    05:00 +10°C° 0 mm 2 mps 634 mmHg 50%
    06:00 +10°C° 0 mm 2 mps 634 mmHg 51%
    07:00 +13°C° 0 mm 2 mps 634 mmHg 46%
    08:00 +15°C° 0 mm 2 mps 635 mmHg 41%
    09:00 +17°C° 0 mm 3 mps 635 mmHg 36%
    10:00 +18°C° 0 mm 3 mps 635 mmHg 34%
    11:00 +19°C° 0 mm 3 mps 635 mmHg 32%
    12:00 +20°C° 0 mm 4 mps 635 mmHg 30%
    13:00 +20°C° 0 mm 4 mps 634 mmHg 30%
    14:00 +20°C° 0 mm 4 mps 634 mmHg 31%
    15:00 +20°C° 0 mm 4 mps 633 mmHg 32%
    16:00 +18°C° 0 mm 4 mps 633 mmHg 35%
    17:00 +17°C° 0 mm 4 mps 632 mmHg 38%
    18:00 +14°C° 0 mm 3 mps 632 mmHg 42%
    19:00 +14°C° 0 mm 3 mps 632 mmHg 42%
    20:00 +14°C° 0 mm 4 mps 632 mmHg 42%
    21:00 +14°C° 0 mm 4 mps 631 mmHg 41%
    22:00 +13°C° 0 mm 4 mps 631 mmHg 42%
    23:00 +13°C° 0 mm 4 mps 631 mmHg 42%

    25 October, Thursday

    Time Temperature Precipitation Wind Pressure Humidity
    00:00 +13°C° 0 mm 4 mps 630 mmHg 43%
    01:00 +13°C° 0 mm 4 mps 630 mmHg 43%
    02:00 +13°C° 0 mm 4 mps 629 mmHg 42%
    03:00 +13°C° 0 mm 4 mps 629 mmHg 42%
    04:00 +13°C° 0 mm 4 mps 629 mmHg 43%
    05:00 +13°C° 0 mm 4 mps 629 mmHg 44%
    06:00 +13°C° 0 mm 4 mps 629 mmHg 45%
    07:00 +14°C° 0 mm 5 mps 629 mmHg 43%
    08:00 +16°C° 0 mm 6 mps 630 mmHg 41%
    09:00 +19°C° 0 mm 6 mps 630 mmHg 38%
    10:00 +20°C° 0 mm 7 mps 630 mmHg 35%
    11:00 +21°C° 0 mm 7 mps 630 mmHg 32%
    12:00 +22°C° 0 mm 7 mps 630 mmHg 30%
    13:00 +22°C° 0 mm 7 mps 629 mmHg 29%
    14:00 +22°C° 0 mm 7 mps 629 mmHg 29%
    15:00 +22°C° 0 mm 8 mps 629 mmHg 29%
    16:00 +21°C° 0 mm 7 mps 629 mmHg 33%
    17:00 +19°C° 0 mm 6 mps 628 mmHg 37%
    18:00 +16°C° 0 mm 6 mps 628 mmHg 40%
    19:00 +16°C° 0 mm 6 mps 628 mmHg 43%
    20:00 +15°C° 0 mm 5 mps 628 mmHg 46%
    21:00 +15°C° 0 mm 5 mps 628 mmHg 49%
    22:00 +14°C° 0 mm 5 mps 628 mmHg 51%
    23:00 +14°C° 0 mm 5 mps 628 mmHg 53%
    Show more